College Park, MD

12:56 PM EST on December 11, 2019 (GMT -0500)
College Park

Weather History for KCGS - October, 2019

Change the Weather History Date:

Thursday, October 17, 2019

  Actual Average Record
Temperature  
Mean Temperature 54 °F -  
Max Temperature 58 °F 68 °F 83 °F (1958)
Min Temperature 50 °F 45 °F 33 °F (1982)
Degree Days  
Heating Degree Days 11    
Growing Degree Days 4 (Base 50)    
Moisture  
Dew Point 33 °F    
Average Humidity 46    
Maximum Humidity 54    
Minimum Humidity 38    
Precipitation  
Precipitation 0.00 in - - ()
Sea Level Pressure  
Sea Level Pressure 29.67 in    
Wind  
Wind Speed 11 mph (West)    
Max Wind Speed 22 mph    
Max Gust Speed 31 mph    
Visibility 10 miles    
Events      
Averages and records for this station are not official NWS values.
T = Trace of Precipitation, MM = Missing Value Source: NWS Daily Summary

Daily Weather History Graph

Daily Weather History Graph

Search for Another Location

Airport or City:

Astronomy

Oct. 17, 2019 Rise Set
Actual Time 7:18 AM EDT 6:26 PM EDT
Civil Twilight 6:51 AM EDT 6:53 PM EDT
Nautical Twilight 6:20 AM EDT 7:24 PM EDT
Astronomical Twilight 5:50 AM EDT 7:55 PM EDT
Moon 8:58 PM EDT (10/17) 10:47 AM EDT (10/17)
Length of Visible Light 12h 01m
Length of Day
11h 07m
Waning Gibbous, 87% of the Moon is Illuminated
Oct 17
Waning Gibbous
Oct 21
Last Quarter
Oct 27
New
Nov 4
First Quarter
Nov 12
Full

Hourly Weather History & Observations

Time (EDT) Temp. Dew Point Humidity Pressure Visibility Wind Dir Wind Speed Gust Speed Precip Events Conditions
12:03 AM 50.9 °F 34.3 °F 53% 29.57 in 10.0 mi West 10.4 mph 21.9 mph N/A   Clear
12:23 AM 50.9 °F 34.0 °F 52% 29.57 in 10.0 mi West 8.1 mph 17.3 mph N/A   Clear
12:43 AM 51.4 °F 34.0 °F 51% 29.57 in 10.0 mi West 11.5 mph 20.7 mph N/A   Mostly Cloudy
1:03 AM 50.9 °F 34.2 °F 53% 29.57 in 10.0 mi West 12.7 mph 18.4 mph N/A   Scattered Clouds
1:23 AM 50.9 °F 34.3 °F 53% 29.57 in 10.0 mi West 4.6 mph - N/A   Scattered Clouds
1:43 AM 51.3 °F 34.3 °F 52% 29.56 in 10.0 mi West 8.1 mph 24.2 mph N/A   Scattered Clouds
2:23 AM 51.1 °F 34.9 °F 54% 29.57 in 10.0 mi West 8.1 mph - N/A   Clear
2:43 AM 51.3 °F 35.1 °F 54% 29.56 in 10.0 mi West 8.1 mph - N/A   Mostly Cloudy
3:03 AM 51.6 °F 35.2 °F 54% 29.55 in 10.0 mi West 6.9 mph - N/A   Mostly Cloudy
3:23 AM 52.0 °F 35.4 °F 53% 29.55 in 10.0 mi West 8.1 mph - N/A   Mostly Cloudy
3:43 AM 52.7 °F 35.2 °F 52% 29.55 in 10.0 mi West 11.5 mph 18.4 mph N/A   Mostly Cloudy
4:23 AM 52.9 °F 34.7 °F 50% 29.55 in 10.0 mi West 12.7 mph 24.2 mph N/A   Overcast
4:43 AM 52.9 °F 34.3 °F 49% 29.55 in 10.0 mi West 11.5 mph 21.9 mph N/A   Mostly Cloudy
5:23 AM 52.3 °F 34.7 °F 51% 29.58 in 10.0 mi West 8.1 mph 17.3 mph N/A   Mostly Cloudy
5:43 AM 52.7 °F 34.7 °F 50% 29.58 in 10.0 mi WSW 8.1 mph 17.3 mph N/A   Mostly Cloudy
6:03 AM 52.2 °F 34.7 °F 51% 29.58 in 10.0 mi West 6.9 mph 20.7 mph N/A   Overcast
6:23 AM 52.2 °F 34.7 °F 51% 29.59 in 10.0 mi West 8.1 mph 20.7 mph N/A   Overcast
6:43 AM 52.0 °F 34.5 °F 51% 29.60 in 10.0 mi West 10.4 mph 20.7 mph N/A   Overcast
7:03 AM 52.0 °F 34.0 °F 50% 29.60 in 10.0 mi West 8.1 mph - N/A   Overcast
7:23 AM 52.0 °F 33.8 °F 50% 29.61 in 10.0 mi West 9.2 mph 16.1 mph N/A   Overcast
7:43 AM 51.8 °F 33.8 °F 50% 29.62 in 10.0 mi West 8.1 mph - N/A   Overcast
8:03 AM 51.8 °F 33.4 °F 50% 29.62 in 10.0 mi WSW 12.7 mph 19.6 mph N/A   Overcast
8:23 AM 52.0 °F 33.6 °F 50% 29.63 in 10.0 mi WSW 8.1 mph 16.1 mph N/A   Overcast
8:43 AM 52.7 °F 33.6 °F 48% 29.63 in 10.0 mi West 9.2 mph 18.4 mph N/A   Overcast
9:03 AM 52.7 °F 34.0 °F 49% 29.63 in 10.0 mi West 9.2 mph 17.3 mph N/A   Overcast
9:23 AM 53.6 °F 34.0 °F 47% 29.63 in 10.0 mi WSW 16.1 mph 27.6 mph N/A   Mostly Cloudy
9:43 AM 54.1 °F 33.8 °F 46% 29.62 in 10.0 mi West 13.8 mph 19.6 mph N/A   Scattered Clouds
10:03 AM 54.3 °F 33.8 °F 46% 29.63 in 10.0 mi West 13.8 mph 21.9 mph N/A   Scattered Clouds
10:23 AM 54.0 °F 33.4 °F 46% 29.63 in 10.0 mi West 10.4 mph 25.3 mph N/A   Mostly Cloudy
10:43 AM 55.2 °F 33.3 °F 43% 29.64 in 10.0 mi West 13.8 mph 23.0 mph N/A   Mostly Cloudy
11:03 AM 54.9 °F 32.9 °F 43% 29.64 in 10.0 mi West 15.0 mph 24.2 mph N/A   Overcast
11:23 AM 55.6 °F 33.3 °F 43% 29.65 in 10.0 mi West 12.7 mph 19.6 mph N/A   Overcast
11:43 AM 56.8 °F 32.7 °F 40% 29.65 in 10.0 mi West 16.1 mph 28.8 mph N/A   Mostly Cloudy
12:23 PM 56.3 °F 32.0 °F 40% 29.67 in 10.0 mi West 13.8 mph 31.1 mph N/A   Overcast
12:43 PM 56.5 °F 32.5 °F 40% 29.66 in 10.0 mi West 12.7 mph 23.0 mph N/A   Overcast
1:03 PM 57.4 °F 32.7 °F 39% 29.66 in 10.0 mi West 16.1 mph 24.2 mph N/A   Scattered Clouds
1:23 PM 57.4 °F 32.2 °F 39% 29.67 in 10.0 mi WNW 17.3 mph 28.8 mph N/A   Scattered Clouds
1:43 PM 57.9 °F 32.7 °F 39% 29.66 in 10.0 mi West 15.0 mph 23.0 mph N/A   Mostly Cloudy
2:03 PM 58.1 °F 32.2 °F 38% 29.66 in 10.0 mi West 15.0 mph 29.9 mph N/A   Scattered Clouds
2:23 PM 56.7 °F 32.0 °F 39% 29.67 in 10.0 mi WNW 18.4 mph 28.8 mph N/A   Scattered Clouds
2:43 PM 56.3 °F 32.0 °F 40% 29.68 in 10.0 mi WNW 13.8 mph 28.8 mph N/A   Mostly Cloudy
3:03 PM 56.5 °F 32.2 °F 40% 29.68 in 10.0 mi West 15.0 mph 24.2 mph N/A   Mostly Cloudy
3:23 PM 56.3 °F 32.2 °F 40% 29.68 in 10.0 mi West 16.1 mph 26.5 mph N/A   Mostly Cloudy
3:43 PM 56.3 °F 32.4 °F 40% 29.68 in 10.0 mi WNW 15.0 mph 25.3 mph N/A   Overcast
4:03 PM 55.8 °F 32.0 °F 41% 29.69 in 10.0 mi WNW 17.3 mph 27.6 mph N/A   Overcast
4:23 PM 55.8 °F 32.4 °F 41% 29.70 in 10.0 mi WNW 16.1 mph 28.8 mph N/A   Overcast
4:43 PM 55.2 °F 32.2 °F 42% 29.70 in 10.0 mi WNW 21.9 mph 27.6 mph N/A   Overcast
5:03 PM 54.9 °F 32.4 °F 42% 29.71 in 10.0 mi WNW 15.0 mph 27.6 mph N/A   Overcast
5:23 PM 54.5 °F 32.0 °F 42% 29.72 in 10.0 mi WNW 15.0 mph 23.0 mph N/A   Mostly Cloudy
5:43 PM 55.0 °F 32.0 °F 42% 29.73 in 10.0 mi West 9.2 mph 18.4 mph N/A   Mostly Cloudy
6:03 PM 54.5 °F 32.0 °F 42% 29.73 in 10.0 mi WNW 11.5 mph 18.4 mph N/A   Overcast
6:23 PM 54.5 °F 32.0 °F 42% 29.75 in 10.0 mi West 5.8 mph 16.1 mph N/A   Overcast
6:43 PM 54.5 °F 32.0 °F 42% 29.75 in 10.0 mi West 9.2 mph - N/A   Overcast
7:03 PM 54.1 °F 32.0 °F 43% 29.75 in 10.0 mi WNW 12.7 mph 20.7 mph N/A   Scattered Clouds
7:23 PM 53.6 °F 32.0 °F 44% 29.76 in 10.0 mi WNW 9.2 mph 17.3 mph N/A   Clear
7:43 PM 53.6 °F 32.0 °F 44% 29.77 in 10.0 mi WNW 8.1 mph 17.3 mph N/A   Mostly Cloudy
8:03 PM 53.6 °F 32.0 °F 44% 29.77 in 10.0 mi West 8.1 mph 20.7 mph N/A   Scattered Clouds
8:23 PM 53.4 °F 32.0 °F 44% 29.78 in 10.0 mi NW 5.8 mph 17.3 mph N/A   Clear
8:43 PM 53.1 °F 31.6 °F 44% 29.78 in 10.0 mi WNW 13.8 mph 18.4 mph N/A   Scattered Clouds
9:03 PM 53.1 °F 31.3 °F 43% 29.79 in 10.0 mi WNW 6.9 mph 16.1 mph N/A   Clear
9:23 PM 52.7 °F 30.9 °F 43% 29.79 in 10.0 mi West 10.4 mph 16.1 mph N/A   Clear
9:43 PM 52.7 °F 30.2 °F 42% 29.81 in 10.0 mi WNW 10.4 mph 18.4 mph N/A   Clear
10:03 PM 52.2 °F 30.2 °F 43% 29.81 in 10.0 mi WNW 11.5 mph 17.3 mph N/A   Clear
10:23 PM 52.2 °F 29.8 °F 42% 29.82 in 10.0 mi WNW 6.9 mph - N/A   Clear
10:43 PM 51.8 °F 29.7 °F 43% 29.83 in 10.0 mi WNW 5.8 mph - N/A   Clear
11:03 PM 51.4 °F 29.5 °F 43% 29.83 in 10.0 mi WNW 3.5 mph - N/A   Clear
11:23 PM 51.1 °F 29.5 °F 43% 29.83 in 10.0 mi WNW 6.9 mph - N/A   Clear
11:43 PM 50.7 °F 29.3 °F 44% 29.84 in 10.0 mi NW 4.6 mph - N/A   Clear